[Iaude] MPEC C143: 2024 CF3 [a=1.16,e=0.21,i=1.1,H=26.2]
    mpec at cfa.harvard.edu 
    mpec at cfa.harvard.edu
       
    Tue Feb 13 03:18:55 EST 2024
    
    
  
M.P.E.C. 2024-C143                            Issued 2024 February 13, 08:16 UT
     The Minor Planet Electronic Circulars contain information on unusual
         minor planets, routine data on comets and natural satellites,
         and occasional editorial announcements.  They are published
    on behalf of Division F of the International Astronomical Union by the
          Minor Planet Center, Smithsonian Astrophysical Observatory,
                          Cambridge, MA 02138, U.S.A.
			  
             Prepared using the Tamkin Foundation Computer Network
                              MPC at CFA.HARVARD.EDU
            URL https://www.minorplanetcenter.net/    ISSN 1523-6714
                                    2024 CF3                                    
Observations:
     K24C03F* C2024 02 07.46934111 42 36.342+28 37 34.99         21.03wXEC143F52
     K24C03F  C2024 02 07.48101411 42 30.641+28 37 15.84         21.13wXEC143F52
     K24C03F  C2024 02 07.49275711 42 24.901+28 36 56.44         21.29wXEC143F52
     K24C03F  C2024 02 07.56089811 41 51.439+28 34 54.85         20.96GVEC143F52
     K24C03F  C2024 02 07.56171611 41 51.022+28 34 53.31         21.16GVEC143F52
     K24C03F  C2024 02 08.23808711 37 30.64 +28 16 41.9                WEC143X09
     K24C03F  C2024 02 08.24971611 37 25.35 +28 16 23.4                WEC143X09
     K24C03F 1C2024 02 13.15215 11 11 40.76 +26 03 17.4          21.1 VXEC143033
     K24C03F 1C2024 02 13.15539 11 11 39.75 +26 03 13.4          20.9 VXEC143033
     K24C03F 1C2024 02 13.15862 11 11 38.84 +26 03 07.5          21.1 VXEC143033
Observer details:
033 Karl Schwarzschild Observatory, Tautenburg.  Observers S. Melnikov, C.
    Hogner, F. Ludwig, M. Hartmann, B. Stecklum.  Measurer B. Stecklum.
    1.34-m f/3 Schmidt + CCD.
F52 Pan-STARRS 2, Haleakala.  Observers J. Herman, T. Lowe, P. Minguez, A.
    Schultz, I. Smith.  Measurers K. Chambers, T. de Boer, J. Fairlamb, H.
    Gao, M. Huber, C.-C. Lin, E. Magnier, Y. Ramanjooloo, R. Wainscoat, R.
    Weryk.  1.8-m Ritchey-Chretien + CCD.
X09 Deep Random Survey, Rio Hurtado.  Observers A. Schnabel, D. Ruhela.
    Measurer S. Deen.  0.43-m reflector + CMOS.
Orbital elements:
2024 CF3                                                 Earth MOID = 0.0148 AU
Epoch 2023 Sept. 13.0 TT = JDT 2460200.5                MPC                     
M 289.56615              (2000.0)            P               Q                  
n   0.79376329     Peri.    9.38301     +0.30899754     -0.95090204             
a   1.1552484      Node    62.61986     +0.87130092     +0.27566400             
e   0.2053513      Incl.    1.12848     +0.38125482     +0.14069355             
P   1.24           H   26.28          G   0.15           U   8                  
Residuals in seconds of arc
240207 F52  0.1+  0.3+    240207 F52  0.1-  0.0     240213 033  0.4-  0.6+
240207 F52  0.1-  0.0     240208 X09  0.2+  0.1-    240213 033  0.2-  0.1-
240207 F52  0.0   0.1+    240208 X09  0.1-  0.2+
240207 F52  0.1+  0.0     240213 033  0.6+  0.5-
Ephemeris:
2024 CF3                 a,e,i = 1.16, 0.21, 1                   q = 0.9180
Date    TT    R. A. (2000) Decl.     Delta      r    Elong.  Phase     V
2024 01 14    19 21 54.2 +07 58 17   0.02933 0.9582    29.8   149.4    26.8
...
2024 01 29    13 33 27.9 +33 51 03   0.02785 0.9965   114.1    64.4    20.8
...
2024 02 06    11 53 15.9 +29 23 43   0.04334 1.0202   141.4    37.1    21.0
...
2024 02 12    11 16 54.3 +26 32 24   0.05748 1.0390   154.0    24.7    21.3
2024 02 13    11 12 24.7 +26 08 06   0.06001 1.0422   155.7    23.0    21.4
2024 02 14    11 08 14.7 +25 44 49   0.06258 1.0454   157.3    21.4    21.4
...
2024 02 20    10 48 39.2 +23 42 35   0.07902 1.0649   164.6    14.3    21.7
...
2024 02 28    10 32 18.7 +21 32 07   0.1037  1.0915   166.7    12.1    22.3
...
2024 03 14    10 19 19.5 +18 16 17   0.1599  1.1416   155.4    21.2    23.6
A. U. Tomatic                (C) Copyright 2024 MPC           M.P.E.C. 2024-C143
    
    
More information about the Iaude
mailing list